Regional Weather Roundup
Issued by NWS Northern Indiana

Home | Current Version | Previous Version | Text Only | Print | Product List | Glossary Off
Versions: 1 2 3 4 5 6 7 8 9 10 11 12 13 14 15 16 17 18 19 20 21 22 23 24 25 26 27 28 29 30 31 32 33 34 35 36 37 38 39 40 41 42 43 44 45 46 47 48 49 50

000
ASUS43 KIWX 072200
RWRIWX

KIWX WEATHER ROUNDUP
NATIONAL WEATHER SERVICE NORTHERN INDIANA
500 PM EST SUN FEB 07 2016

NOTE: "FAIR" INDICATES FEW OR NO CLOUDS BELOW 12,000 FEET WITH NO
SIGNIFICANT WEATHER AND/OR OBSTRUCTIONS TO VISIBILITY.

* THESE STATIONS ARE NOT UNDER NWS QUALITY CONTROL. THEY ALSO MAY NOT
  REPORT WEATHER SUCH AS PRECIPITATION OR FOG.

INZ001>027-072300-
NORTHERN INDIANA

CITY           SKY/WX    TMP DP  RH WIND       PRES   REMARKS
GARY*          PTSUNNY   46  30  53 SW16G32   29.76R
SOUTH BEND     CLOUDY    44  32  62 SW17G24   29.76S
ELKHART*         N/A     45  30  57 SW14      29.76R
GOSHEN         CLOUDY    46  32  58 SW21G26   29.75S
ANGOLA*        PTCLDY    45  34  65 SW10      29.75S
FORT WAYNE     PTSUNNY   48  29  47 SW17      29.79R
PERU/GRISSOM   MOSUNNY   47  33  57 W14       29.77S

$$
INZ028>050-072300-
CENTRAL INDIANA

CITY           SKY/WX    TMP DP  RH WIND       PRES   REMARKS
LAFAYETTE      CLOUDY    48  30  49 W16G23    29.79S
KOKOMO*          N/A     48  30  49 SW18G24   29.78F
MUNCIE*        MOSUNNY   51  28  41 SW20G26   29.80S
INDIANAPOLIS   PTSUNNY   52  26  36 SW24G31   29.81R

$$
MIZ043>046-050>051-056>058-064>065-071>073-077>080-072300-
SOUTHWEST LOWER MICHIGAN

CITY           SKY/WX    TMP DP  RH WIND       PRES   REMARKS
BATTLE CREEK   CLOUDY    44  29  55 SW16      29.73R
BENTON HARBOR  CLOUDY    43  32  65 SW15G24   29.74S
COLDWATER*     PTCLDY    45  29  54 SW13G20   29.74S
HILLSDALE*     MOCLDY    44  29  56 SW9       29.74S
HOLLAND        CLOUDY    42  31  64 SW18G24   29.72S
GRAND RAPIDS   CLOUDY    42  30  62 SW15      29.71S
KALAMAZOO      CLOUDY    45  29  53 SW14      29.74R
STURGIS*       CLOUDY    43  31  62 SW10G21   29.74S
THREE RIVERS*  MOCLDY    45  32  60 SW13      29.74S

$$
OHZ001>008-015>018-024>025-072300-
NORTHWEST OHIO

CITY           SKY/WX    TMP DP  RH WIND       PRES   REMARKS
DEFIANCE       CLOUDY    48  31  51 S13       29.78F
FINDLAY        PTCLDY    48  30  49 S15       29.81S
TOLEDO EXPRESS CLOUDY    49  28  44 SW17G26   29.78F
TOLEDO METCALF MOCLDY    50  28  42 S16       29.80F
LIMA           PTCLDY    49  28  44 SW15      29.81F

$$
AND FOR LAKE MICHIGAN COASTAL AND OPEN LAKE BUOY OBSERVATIONS

STATION/POSITION TEMP    WIND        PRES    VSBY  WAVE
                 AIR SEA DIR/SP/G                  HT/PER
                 (F)     (DEG/KT/KT) (MB)    (MI)  (FT/S)
CALUMET HARBOR    44     200/ 15/ 21 1006.3R
MICHIGAN CITY     44     200/ 22/ 26   N/A
BURNS HARBOR      45     240/ 18/ 25 1007.8S
SAINT JOSEPH      38     190/  8/ 10 1008.1R

$$
&&




USA.gov is the U.S. government's official web portal to all federal, state and local government web resources and services.